Flag for Germany Weather past 2 weeks in Berlin, Berlin, Germany

Now
39 °F

Chilly.


Feels Like: 36 °F
Forecast: 34 / 38 °F
Wind: 5 mph from South

Location: Berlin-Tempelhof

Current Time: Jan 26, 2015 at 2:23:31 PM

Latest Report: Jan 26, 2015 at 2:00 PM


Visibility: N/A

Pressure: 30.09 "Hg

Humidity: 81%

Dew point: 34 °F

Location of BerlinLocation

Historic Weather in Berlin — Graph

°F

Berlin temperature yesterday

Maximum temperature yesterday: 35 °F (at 10:00 PM)
Minimum temperature yesterday: 33 °F (at 9:00 AM)
Average temperature yesterday: 34 °F

Past Weeks' High & Low Weather Summary

 TemperatureHumidityPressure
High54 °F (Jan 13, 3:00 PM)98% (Jan 20, 11:00 PM)30.33 "Hg (Jan 20, 11:00 PM)
Low26 °F (Jan 19, 7:00 AM)51% (Jan 13, 7:00 PM)29.59 "Hg (Jan 15, 9:00 PM)
Average37 °F85%29.97 "Hg
* Reported Jan 11 1:00 PM — Jan 26 1:00 PM, Berlin, Weather by CustomWeather, © 2014

Note: Actual official high and low records may vary slightly from our data, if they occured in-between our weather recording intervals... More about our weather records

Advertising

Berlin weather history for previous 24 hours

 ConditionsComfort  
Time TempWeatherWind HumidityBarometerVisibility
1:00 PM
Jan 26
39 °FChilly.6 mph84%30.13 "HgN/A
12:00 PM37 °FChilly.5 mph87%30.17 "HgN/A
11:00 AM36 °FChilly.3 mph89%30.20 "HgN/A
10:00 AM36 °FChilly.3 mph95%30.22 "HgN/A
9:00 AM35 °FChilly.3 mph95%30.24 "HgN/A
8:00 AM35 °FChilly.3 mph92%30.25 "HgN/A
7:00 AM35 °FChilly.2 mph91%30.26 "HgN/A
6:00 AM34 °FChilly.1 mph92%30.27 "HgN/A
5:00 AM34 °FChilly.3 mph90%30.27 "HgN/A
4:00 AM34 °FChilly.2 mph88%30.29 "HgN/A
3:00 AM34 °FChilly.3 mph91%30.30 "HgN/A
2:00 AM34 °FChilly.5 mph91%30.30 "HgN/A
1:00 AM35 °FChilly.3 mph94%30.31 "HgN/A
12:00 AM35 °FChilly.3 mph94%30.32 "HgN/A
11:00 PM
Jan 25
35 °FChilly.3 mph92%30.32 "HgN/A
10:00 PM35 °FChilly.2 mph93%30.33 "HgN/A
9:00 PM35 °FChilly.3 mph95%30.32 "HgN/A
8:00 PM34 °FChilly.3 mph96%30.32 "HgN/A
7:00 PM34 °FChilly.5 mph96%30.32 "HgN/A
6:00 PM34 °FChilly.5 mph94%30.31 "HgN/A
5:00 PM34 °FChilly.3 mph94%30.30 "HgN/A
4:00 PM34 °FChilly.5 mph93%30.29 "HgN/A
3:00 PM34 °FChilly.5 mph91%30.28 "HgN/A
2:00 PM34 °FChilly.5 mph93%30.27 "HgN/A
Weather by CustomWeather, © 2014

See weather overviewHow to use our weather pages